Weather History for Wooster, OH

Change the Weather History Date:

Sunday, April 27, 2014

  Actual Average Record
Temperature  
Mean Temperature 47 °F -  
Max Temperature 61 °F 61 °F 75 °F (2011)
Min Temperature 34 °F 38 °F 28 °F (2003)
Degree Days  
Heating Degree Days 18    
Moisture  
Dew Point 34 °F    
Average Humidity 66    
Maximum Humidity 89    
Minimum Humidity 35    
Precipitation  
Precipitation 0.00 in - - ()
Sea Level Pressure  
Sea Level Pressure 30.10 in    
Wind  
Wind Speed 7 mph (NE)    
Max Wind Speed 13 mph    
Max Gust Speed -    
Visibility 10 miles    
Events      
Averages and records for this station are not official NWS values.
T = Trace of Precipitation, MM = Missing Value Source: NWS Daily Summary

Daily Weather History Graph

Daily Weather History Graph

Search for Another Location

Airport:

Trip Planner

Search our weather history database for the weather conditions in past years. The results will help you decide how hot, cold, wet, or windy it might be!

Date:

Astronomy

Apr. 27, 2014 Rise Set
Actual Time 6:31 AM EDT 8:19 PM EDT
Civil Twilight 6:01 AM EDT 8:49 PM EDT
Nautical Twilight 5:26 AM EDT 9:25 PM EDT
Astronomical Twilight 4:47 AM EDT 10:03 PM EDT
Moon 5:31 AM EDT (4/27) 6:51 PM EDT (4/27)
Length of Visible Light 14h 47m
Length of Day
13h 48m
Waning Crescent, 3% of the Moon is Illuminated
Apr 27
Waning Crescent
Apr 29
New
May 6
First Quarter
May 14
Full
May 21
Last Quarter

Hourly Weather History & Observations

Time (EDT) Temp. Windchill Dew Point Humidity Pressure Visibility Wind Dir Wind Speed Gust Speed Precip Events Conditions
12:56 AM 37.0 °F 31.6 °F 32.0 °F 82% 30.08 in 9.0 mi NNE 6.9 mph - N/A   Clear
1:17 AM 37.0 °F 33.3 °F 32.0 °F 82% 30.07 in 10.0 mi NNE 4.6 mph - N/A   Mostly Cloudy
1:56 AM 37.0 °F 33.3 °F 33.1 °F 86% 30.09 in 9.0 mi NE 4.6 mph - N/A   Overcast
2:56 AM 37.0 °F 32.4 °F 32.0 °F 82% 30.09 in 10.0 mi NE 5.8 mph - N/A   Overcast
3:56 AM 37.0 °F 31.6 °F 32.0 °F 82% 30.10 in 10.0 mi NE 6.9 mph - N/A   Overcast
4:56 AM 37.0 °F 32.4 °F 32.0 °F 82% 30.11 in 10.0 mi NNE 5.8 mph - N/A   Overcast
5:22 AM 36.0 °F 31.1 °F 30.9 °F 82% 30.09 in 10.0 mi NNE 5.8 mph - N/A   Scattered Clouds
5:56 AM 35.1 °F 32.2 °F 30.9 °F 85% 30.12 in 10.0 mi North 3.5 mph - N/A   Clear
6:56 AM 34.0 °F 28.8 °F 30.9 °F 89% 30.14 in 9.0 mi North 5.8 mph - N/A   Clear
7:56 AM 37.0 °F 31.0 °F 33.1 °F 86% 30.16 in 8.0 mi NE 8.1 mph - N/A   Clear
8:56 AM 41.0 °F 33.9 °F 33.1 °F 73% 30.16 in 10.0 mi East 12.7 mph - N/A   Clear
9:56 AM 44.1 °F 39.5 °F 33.1 °F 65% 30.17 in 10.0 mi East 8.1 mph - N/A   Clear
10:56 AM 46.0 °F 42.5 °F 33.1 °F 61% 30.17 in 10.0 mi East 6.9 mph - N/A   Clear
11:56 AM 50.0 °F - 33.1 °F 52% 30.16 in 10.0 mi North - - N/A   Partly Cloudy
12:56 PM 53.1 °F - 35.1 °F 50% 30.12 in 10.0 mi NNE 9.2 mph - N/A   Clear
1:56 PM 55.0 °F - 33.1 °F 43% 30.09 in 10.0 mi ENE 4.6 mph - N/A   Clear
2:56 PM 57.0 °F - 33.1 °F 40% 30.08 in 10.0 mi ENE 6.9 mph - N/A   Clear
4:56 PM 60.1 °F - 33.1 °F 36% 30.06 in 10.0 mi ESE 5.8 mph - N/A   Clear
5:56 PM 60.1 °F - 32.0 °F 35% 30.05 in 10.0 mi East 8.1 mph - N/A   Clear
6:56 PM 57.0 °F - 39.0 °F 51% 30.05 in 10.0 mi NE 5.8 mph - N/A   Clear
7:56 PM 54.0 °F - 37.9 °F 55% 30.05 in 10.0 mi NNE 11.5 mph - N/A   Clear
8:56 PM 51.1 °F - 37.9 °F 61% 30.06 in 10.0 mi NNE 10.4 mph - N/A   Partly Cloudy
9:56 PM 52.0 °F - 37.0 °F 57% 30.06 in 10.0 mi NE 8.1 mph - N/A   Partly Cloudy
10:56 PM 50.0 °F - 37.0 °F 61% 30.08 in 10.0 mi ENE 9.2 mph - N/A   Clear
11:56 PM 48.0 °F - 35.1 °F 61% 30.05 in 10.0 mi East 10.4 mph - N/A   Clear